Location: Asis
(14.1331°N, 120.9056°E)
Time: 17:41:09
(UTC+00:00)

Cosmos 1933 Rocket - Pass Details

Date: 15 January 2026
Orbit: 600 x 624 km, 82.5° (Epoch: 13 February)

Event Time Altitude Azimuth Distance (km) Brightness Sun altitude
Rises 10:36:08 0° 358° (N) 2,864 6.8 -12.0°
Reaches altitude 10° 10:38:21 10° 359° (N) 1,956 5.9 -12.5°
Maximum altitude 10:42:40 77° 85° (E) 623 3.4 -13.5°
Drops below altitude 10° 10:46:58 10° 172° (S) 1,940 6.2 -14.4°
Sets 10:49:10 0° 173° (S) 2,839 7.1 -15.0°
